Theta_e
310 309 309 310 310 310 309 310 310 310 310 311 311 312 311 311 312 313 313 313 313 314 314 315 315 315 315 315 315 316 315 310 303 301 301 305 312 315 315 316 315 316 316 307 304 302 300 301 301 303 301 299 302 300 304 304 308 305 296 294 293 296 295 299 297 297 304 304 305 308 309 309 307 311 313 315 312 312 313 312 313 316 316 324 328 333 335 334
309 309 309 308 308 309 310 309 310 310 310 311 311 312 311 312 311 313 313 313 313 314 314 315 316 316 315 315 315 315 312 309 301 299 299 311 315 316 316 316 315 315 314 303 301 300 299 298 300 301 299 295 307 296 301 301 303 297 294 293 290 294 298 301 300 304 301 300 304 306 308 307 308 310 312 308 308 309 309 310 312 311 315 326 331 332 332 332
309 308 308 308 308 309 310 309 310 310 310 310 311 311 311 311 312 312 313 313 313 313 314 315 316 316 316 316 316 316 310 308 300 296 300 315 315 315 316 315 315 315 306 302 302 301 299 299 300 299 299 297 299 294 297 295 298 295 292 289 291 297 297 299 302 303 302 303 301 303 305 305 306 307 312 309 307 308 306 307 310 310 310 322 328 329 331 331
308 308 308 309 309 309 309 309 310 310 310 310 311 311 311 312 312 312 313 313 314 313 314 315 316 316 316 317 317 310 308 304 293 297 303 315 315 315 314 315 314 311 307 305 304 303 303 302 299 298 296 296 296 298 293 296 297 299 292 289 292 297 295 298 303 301 301 301 301 302 303 304 302 304 309 310 307 306 306 311 312 312 313 319 327 328 329 329
308 308 308 308 308 309 309 309 309 310 310 311 311 311 311 312 312 312 313 313 314 313 314 315 316 316 316 317 317 315 305 296 292 301 305 314 314 314 314 315 313 307 305 305 305 305 303 300 299 298 296 291 293 293 294 296 298 295 291 294 295 296 294 298 299 301 298 299 299 299 299 300 302 304 306 307 305 305 307 314 315 316 316 323 325 327 328 328
308 307 308 308 308 309 309 309 309 309 310 311 310 311 311 312 312 312 313 314 313 313 314 315 316 315 316 316 315 313 302 279 297 300 312 313 314 313 313 314 311 306 305 304 302 301 299 300 299 294 291 291 291 290 294 296 297 289 293 294 295 295 293 296 297 297 296 296 296 296 298 298 298 299 303 305 306 310 315 314 317 317 317 321 326 327 325 328
307 307 308 308 308 308 308 309 309 309 309 311 311 311 311 312 312 312 312 313 313 313 315 316 315 316 315 316 314 301 294 294 300 305 311 313 313 312 313 312 311 305 304 302 301 299 299 297 295 293 292 292 293 291 293 293 295 291 287 292 292 294 293 295 295 297 297 296 296 298 299 295 296 294 302 301 306 310 312 313 314 317 318 318 323 327 325 327
307 308 308 307 307 308 308 308 308 308 309 310 310 311 311 312 312 312 313 313 313 314 315 315 315 315 315 310 309 294 293 292 300 306 311 312 308 308 311 308 306 305 303 300 300 300 299 295 292 295 291 287 289 289 291 290 292 288 288 291 293 295 296 297 297 297 298 298 299 298 296 296 297 296 297 297 301 305 308 311 312 314 316 317 317 324 325 326
308 307 308 308 308 308 308 309 309 309 309 310 310 311 312 312 311 312 313 313 314 314 315 315 314 314 315 308 303 291 289 300 304 305 306 305 304 306 308 305 307 304 302 302 303 302 299 296 296 297 288 290 292 290 293 291 287 291 292 292 292 293 295 296 296 296 296 297 298 296 295 296 297 299 295 297 299 303 306 307 309 311 312 314 315 316 318 324
307 307 307 307 308 308 308 309 309 309 309 310 310 311 312 312 312 313 312 314 314 314 314 314 313 313 308 302 297 287 296 306 308 305 305 304 304 305 305 305 306 304 301 301 303 302 298 297 298 299 298 295 295 290 293 291 289 294 292 293 292 293 293 294 293 293 294 294 296 294 293 295 298 296 290 299 303 304 305 306 308 310 311 312 314 315 316 317
307 307 307 307 307 308 308 309 309 309 309 310 311 312 311 311 313 313 312 312 313 314 314 313 313 312 305 299 291 287 305 306 305 305 305 305 304 304 303 304 306 303 302 302 301 302 302 301 301 300 299 292 293 291 291 291 294 293 293 293 292 292 293 293 293 293 294 293 296 295 294 296 296 295 291 295 299 300 299 302 307 309 310 310 311 314 315 316
307 307 307 307 307 307 308 309 309 309 310 311 311 311 311 312 313 313 312 311 312 312 312 313 312 310 309 296 291 292 307 306 305 305 305 305 304 305 306 306 306 304 303 299 301 304 304 303 303 298 289 298 289 293 291 295 293 292 291 285 287 288 287 290 289 291 293 292 296 296 293 292 294 291 295 296 297 297 297 298 300 302 307 311 313 314 314 314
307 307 307 307 307 307 308 308 309 310 310 311 311 311 311 312 313 313 311 312 311 311 312 313 312 311 307 292 295 306 308 305 306 306 306 306 306 306 307 308 308 307 306 302 301 304 305 303 302 296 298 295 292 287 294 295 293 293 291 287 285 285 285 289 291 292 291 293 297 296 282 287 291 295 297 298 297 296 294 295 299 302 305 309 311 312 314 317
306 307 306 306 307 307 307 308 309 310 310 311 311 310 310 311 312 312 313 311 313 313 312 312 310 307 303 291 305 309 312 306 308 304 304 305 302 303 306 308 309 309 310 307 306 305 306 304 303 299 301 294 291 300 293 293 294 287 290 289 283 281 281 290 290 291 290 295 296 296 284 287 292 295 298 297 298 295 293 293 296 301 304 305 308 309 311 315
306 306 306 306 307 307 307 308 309 309 310 311 311 310 309 310 310 310 311 311 312 313 314 313 311 305 294 295 310 312 315 310 302 302 305 303 300 301 302 306 306 308 308 308 307 308 307 305 302 297 293 300 297 293 288 288 289 288 283 280 284 281 283 287 291 290 288 293 296 294 285 286 291 294 297 298 297 295 293 293 294 297 300 302 304 306 308 311
306 306 306 306 306 307 307 308 308 309 310 311 311 310 310 310 310 310 311 309 311 312 312 310 307 302 293 288 297 311 306 298 297 304 306 304 301 300 304 305 306 308 306 308 309 306 306 304 296 296 294 297 292 288 285 284 285 288 284 281 281 283 283 284 289 291 292 292 295 293 286 290 290 295 297 299 298 297 293 293 293 294 295 296 298 301 304 305
305 305 305 306 306 307 307 308 308 308 310 311 311 309 310 311 311 310 310 310 310 307 309 301 301 306 287 298 306 297 295 300 303 304 305 303 303 304 304 303 303 303 307 305 307 305 304 298 300 297 297 291 289 288 282 280 280 282 284 281 283 281 282 280 287 289 293 292 289 293 289 290 292 295 297 298 298 297 293 293 295 298 299 299 297 298 300 302
305 305 305 305 306 307 307 307 307 308 310 311 310 307 307 309 311 312 312 310 311 312 306 308 304 300 291 299 289 292 299 299 301 302 302 302 305 303 303 301 302 301 303 300 303 298 300 293 294 286 288 288 287 284 279 276 279 279 280 279 280 282 282 281 281 286 289 289 288 289 289 289 292 294 295 297 298 296 295 294 295 295 296 298 299 298 300 300
305 305 305 305 306 306 307 307 307 308 310 311 311 311 309 310 307 309 301 302 301 293 290 290 292 281 277 290 297 298 299 301 303 302 297 299 301 303 304 305 302 299 294 293 294 296 295 291 291 285 282 283 283 284 282 283 284 282 282 281 281 279 280 281 285 288 287 285 284 286 285 288 290 292 294 296 298 296 296 296 296 296 296 297 298 296 297 301
304 304 305 305 306 307 307 307 307 308 310 307 307 307 306 302 301 296 298 298 293 291 293 295 297 297 296 295 295 300 304 306 298 298 299 300 301 299 299 299 300 299 293 288 291 293 295 283 281 281 283 285 286 287 286 286 286 285 284 282 281 281 282 285 286 288 292 288 284 283 285 288 290 292 294 295 297 296 296 295 296 296 298 298 300 301 301 302
304 304 305 305 306 306 307 306 307 308 309 308 307 302 295 291 292 287 293 293 296 298 296 297 299 295 292 297 299 296 292 296 299 296 297 302 301 298 293 295 291 288 290 292 290 296 293 281 281 285 287 287 287 289 288 286 285 283 282 281 281 282 280 285 285 289 291 287 285 286 286 287 289 291 293 295 295 295 295 295 295 296 298 298 300 301 301 303
304 304 305 305 306 306 306 306 307 309 308 305 301 295 295 295 297 299 296 287 293 299 300 299 299 294 299 300 302 299 299 293 292 294 299 300 296 292 292 292 288 284 290 290 289 285 281 279 284 287 289 290 289 288 287 285 283 283 282 282 281 281 284 287 287 289 290 289 285 287 286 288 290 292 293 293 294 296 298 297 297 297 298 298 299 299 299 300
303 304 305 306 306 306 306 306 306 308 303 299 296 296 295 300 303 303 299 295 290 297 296 295 294 292 294 300 299 300 293 289 287 292 294 298 293 292 292 288 286 287 288 288 284 280 277 281 285 288 288 288 286 287 286 285 285 283 283 281 279 283 281 279 287 289 289 287 284 287 286 288 290 292 293 294 295 296 297 296 296 298 296 296 297 297 297 297
304 305 306 306 306 306 307 306 307 305 300 299 297 296 300 303 302 302 296 287 288 292 296 296 298 292 292 291 297 296 293 292 290 289 298 296 290 293 292 289 286 284 284 285 286 281 279 284 289 288 287 287 284 286 284 283 281 285 285 283 282 282 283 283 283 286 288 288 289 286 285 285 287 288 287 290 293 293 293 293 294 295 296 297 296 296 297 296
304 305 306 306 306 306 306 305 301 300 302 300 297 301 302 303 303 303 295 286 288 289 298 298 300 295 294 302 302 293 294 297 292 296 297 296 291 293 290 294 288 281 285 285 286 284 281 287 289 286 285 286 284 283 283 283 281 282 284 283 283 284 283 284 285 284 282 281 286 285 278 277 283 285 284 287 288 289 291 291 292 293 294 294 294 294 295 296
304 305 305 306 305 307 306 300 298 301 299 295 298 302 303 303 302 304 294 284 277 283 295 284 300 288 302 293 296 295 294 287 293 296 298 298 299 295 293 285 290 280 285 284 281 284 283 288 287 283 284 284 283 282 284 285 281 280 281 286 287 286 285 285 284 283 278 276 284 289 278 274 281 281 284 285 286 286 288 289 290 292 293 293 293 294 294 294
303 304 305 305 305 307 303 293 301 303 297 296 301 303 303 304 303 299 290 279 275 283 283 294 294 291 299 294 294 295 275 280 293 297 295 299 291 301 289 283 288 286 286 280 283 277 285 286 284 282 282 281 280 279 283 284 282 280 287 289 288 286 285 284 284 283 281 285 285 287 283 275 274 279 284 286 284 284 285 287 288 290 291 293 294 294 294 295
303 304 305 305 305 306 301 304 301 296 295 300 303 303 302 303 305 299 286 271 267 287 282 288 293 301 296 295 296 288 286 291 285 289 296 298 294 293 291 284 283 283 287 283 275 280 286 283 284 283 281 280 279 281 283 286 283 283 288 289 287 287 286 285 284 283 283 281 279 283 286 275 274 279 284 285 282 283 283 285 287 288 290 292 292 293 294 295
303 304 305 305 306 306 305 301 298 295 300 303 302 303 303 300 297 288 281 269 275 283 298 286 304 296 292 295 290 290 290 291 284 289 296 298 294 291 285 287 285 284 287 287 280 281 284 285 283 287 282 280 282 284 285 285 281 287 289 290 289 288 287 286 284 283 282 279 275 279 281 273 273 278 280 283 282 281 283 285 287 288 289 290 291 292 293 294
303 304 304 306 306 305 303 304 299 302 303 303 302 301 300 298 290 282 273 265 280 274 288 289 290 283 289 285 287 288 287 288 290 291 293 290 290 291 292 293 284 282 284 288 287 284 286 293 292 285 281 285 284 285 286 286 287 289 289 287 287 286 284 283 283 281 281 273 274 279 282 278 270 276 278 278 280 283 284 285 286 288 289 290 291 291 292 292
302 303 304 305 298 299 300 296 297 303 304 303 301 299 297 291 282 277 264 271 283 280 290 286 284 290 284 281 279 285 286 287 286 288 285 290 286 286 284 284 285 282 281 280 280 283 286 287 284 286 290 288 287 284 287 287 289 287 284 283 282 282 283 282 279 277 274 271 277 279 278 279 270 274 279 283 285 285 284 283 285 286 288 289 290 291 292 292
302 302 304 301 301 304 293 292 297 303 304 303 298 296 290 283 282 273 269 289 273 277 276 279 286 284 283 284 281 281 281 285 285 285 282 282 280 279 279 275 276 271 271 274 274 281 279 281 284 286 292 286 283 281 282 286 286 283 282 282 275 273 275 273 276 272 272 272 277 281 282 275 273 277 280 282 283 284 285 285 285 286 288 289 290 291 291 292
302 302 303 302 303 301 300 302 302 302 301 300 296 293 284 279 267 274 274 275 271 279 279 287 282 283 282 279 278 282 284 277 285 285 285 283 281 281 282 280 280 276 267 273 274 275 276 283 283 283 286 287 285 277 277 277 281 281 278 278 274 270 270 269 273 275 273 275 279 278 280 274 277 279 282 281 283 284 285 286 287 287 287 288 289 290 290 290
301 302 301 303 303 303 304 302 302 301 299 299 292 287 281 274 270 278 270 275 272 283 285 282 283 283 276 277 279 282 276 284 281 282 283 277 279 275 279 281 280 275 273 275 271 272 267 269 277 280 277 285 284 282 281 279 280 279 281 278 276 275 271 269 272 270 272 274 277 280 276 272 274 275 283 284 285 285 286 287 287 288 289 289 289 289 289 289
302 300 301 303 303 303 302 302 302 301 298 296 286 285 274 271 275 273 274 276 280 282 279 281 278 279 277 278 280 283 281 276 283 280 279 278 275 276 276 278 280 279 275 269 273 272 272 271 278 284 284 285 282 285 286 283 280 280 282 281 273 272 277 271 274 272 273 274 275 276 274 277 276 282 283 284 284 285 286 286 287 286 288 288 287 287 288 288
299 301 303 301 300 300 302 302 301 300 296 290 285 278 275 273 273 277 279 287 285 277 280 281 278 275 275 278 279 279 286 276 280 277 276 278 278 275 279 278 278 279 274 270 273 268 272 270 281 282 286 282 283 286 285 286 271 277 278 271 274 280 278 274 274 276 276 275 273 278 276 278 282 282 282 282 282 283 284 284 284 285 286 286 286 286 287 288
298 303 298 301 299 299 300 302 301 298 295 290 283 276 275 272 275 280 286 283 283 283 278 273 272 272 270 271 277 278 278 281 277 276 273 279 275 277 278 279 282 279 279 277 273 278 268 271 279 280 279 283 285 286 287 286 284 278 271 276 281 286 282 275 267 270 269 266 270 277 274 276 276 273 282 281 280 280 281 282 283 284 284 285 285 286 286 286
297 299 297 299 299 299 301 301 299 296 293 286 278 279 274 274 282 284 287 286 285 283 279 275 273 277 271 273 274 275 279 275 276 274 272 275 272 284 278 279 282 280 280 279 273 273 278 270 276 281 280 282 286 285 284 285 285 279 276 279 274 268 267 271 270 263 263 261 265 273 275 275 276 275 279 278 279 280 281 283 283 283 285 286 286 285 286 286
298 296 294 298 301 299 301 301 297 295 288 283 280 279 277 278 283 284 287 286 287 283 279 276 274 273 273 273 276 277 278 273 276 274 271 274 271 280 278 280 278 280 280 280 273 277 277 269 273 281 279 280 282 278 271 276 281 280 283 277 275 274 270 267 270 269 269 262 263 265 268 269 277 276 279 279 280 281 280 280 279 280 283 285 286 287 287 286
295 294 290 301 299 299 302 299 296 289 285 281 280 276 276 277 281 287 287 286 281 280 280 278 276 275 274 273 278 275 277 276 276 275 274 276 277 283 280 283 276 278 279 281 277 279 274 276 268 276 280 279 274 276 274 275 273 275 275 273 274 271 274 273 272 269 265 262 263 262 260 270 277 281 280 279 279 279 280 280 280 281 281 282 284 286 287 287
296 291 291 300 298 300 302 298 287 284 279 278 278 274 277 279 282 286 288 288 285 289 283 282 280 275 274 274 274 278 275 276 276 275 276 274 273 271 280 279 280 276 279 276 278 276 272 273 269 274 274 272 274 280 280 279 278 276 275 272 273 271 268 265 264 272 267 266 264 262 262 268 279 284 282 280 280 280 281 281 281 281 281 281 282 283 285 286
292 284 289 300 299 300 297 285 283 286 284 280 278 280 279 286 279 283 283 285 284 282 284 282 282 280 277 275 277 275 274 274 275 275 277 274 279 279 281 283 280 280 277 272 275 280 278 276 274 271 273 274 279 282 283 280 278 274 277 274 277 273 272 267 262 264 266 267 271 267 264 266 281 282 281 281 281 281 281 281 281 281 281 281 282 282 283 285
290 285 298 300 300 298 293 284 285 282 277 277 281 283 286 282 280 282 280 281 277 282 281 278 282 279 279 277 274 272 276 273 274 274 278 277 275 280 282 282 281 280 281 277 279 277 282 275 271 272 275 278 279 280 281 280 279 276 276 278 275 270 272 269 269 269 266 266 266 267 263 269 280 282 281 282 281 281 280 280 280 281 281 282 281 282 282 284
290 287 291 299 301 298 288 280 280 278 276 275 279 279 286 281 282 276 277 280 279 277 282 282 282 283 279 282 278 272 276 269 278 276 276 277 277 284 283 281 278 276 277 276 273 278 271 274 270 267 267 270 273 275 274 273 274 273 273 277 277 276 275 273 272 272 267 266 267 264 259 268 280 283 282 282 282 281 280 280 280 280 281 281 281 282 282 282
288 291 287 292 295 295 284 281 282 279 276 274 275 275 277 279 282 283 282 278 285 281 282 280 284 284 279 277 272 272 271 272 270 276 276 277 277 284 283 282 281 279 283 283 282 281 275 272 269 264 261 261 261 262 264 267 272 275 273 276 277 276 275 270 266 267 264 267 269 265 264 273 281 282 282 282 281 280 281 281 281 280 281 281 281 281 281 281
286 282 286 287 288 288 285 288 282 280 276 274 275 277 279 277 281 283 281 282 285 284 281 283 282 283 279 275 270 266 267 270 269 268 271 273 277 279 277 282 281 280 282 283 281 277 271 272 271 269 267 266 269 271 275 276 273 270 273 274 274 275 276 275 271 267 265 267 267 270 271 273 275 277 279 280 279 279 280 280 280 280 281 281 281 281 281 281
286 284 282 283 285 284 282 282 280 280 278 280 277 276 274 278 279 278 280 274 282 280 277 280 280 276 275 276 272 268 267 266 268 266 269 273 276 278 280 280 281 282 282 281 281 275 271 268 271 270 272 273 274 274 275 275 272 273 272 272 274 274 275 272 267 267 273 268 265 272 275 273 275 277 277 278 279 280 280 280 280 280 280 280 281 280 283 280
285 282 284 278 279 281 282 279 281 278 279 279 277 279 276 277 276 274 278 281 279 277 275 276 278 280 279 276 275 269 266 263 264 266 271 274 274 276 277 279 278 280 281 278 279 273 268 265 270 271 271 273 274 274 275 274 273 273 273 273 272 274 273 270 270 273 273 267 266 272 274 272 274 276 278 279 280 279 280 280 281 281 280 280 280 279 279 279
285 283 280 279 281 278 280 281 283 280 278 280 279 277 276 276 275 279 276 277 276 277 279 272 275 278 279 280 274 271 269 267 267 265 265 270 272 273 273 277 278 280 278 275 271 272 269 268 269 270 271 272 272 273 274 272 272 273 273 273 274 273 273 274 273 274 274 272 273 274 274 274 276 278 279 281 281 280 280 281 280 279 279 279 279 278 278 279
284 284 281 280 280 279 281 281 282 281 277 281 277 278 279 278 277 278 278 275 272 274 278 274 275 279 280 279 276 272 274 275 275 269 272 272 270 275 274 276 274 277 276 272 271 268 269 268 274 269 265 268 272 273 273 273 273 272 273 274 274 274 274 274 273 274 275 274 275 275 274 274 279 281 281 281 280 281 280 279 279 279 279 279 278 278 278 279
285 283 284 282 281 279 280 281 279 279 278 277 276 280 280 279 278 280 278 281 278 275 276 275 278 277 279 278 277 276 279 278 278 278 279 277 272 277 272 273 277 274 276 274 273 270 271 267 270 267 265 265 271 271 273 273 272 271 271 272 272 272 270 273 272 275 273 272 274 273 272 273 278 280 281 280 280 280 279 279 279 279 279 279 278 278 278 279
288 288 287 284 282 283 280 281 281 279 276 281 279 281 279 279 281 279 276 281 281 281 280 279 280 277 276 276 277 278 281 280 280 281 281 280 280 279 279 279 278 276 274 274 276 271 270 269 266 266 265 265 270 272 271 270 268 268 269 272 273 274 274 275 276 277 277 277 274 271 272 277 279 281 278 279 280 280 280 279 278 279 278 278 278 278 279 279
Wind_Speed
16 16 15 17 17 17 16 16 17 17 17 16 16 17 16 16 16 16 16 16 15 15 15 15 14 13 11 13 15 15 15 8 9 11 14 12 13 16 17 18 18 20 21 17 13 14 15 14 15 16 10 6 3 2 5 3 1 2 3 3 8 6 5 4 5 4 5 5 9 9 15 3 3 2 1 0 4 4 5 7 3 2 3 8 7 10 11 10
17 17 17 17 17 16 16 17 17 17 17 17 17 18 18 17 17 16 16 16 16 16 16 16 16 13 11 12 13 14 10 8 11 12 16 15 18 17 18 19 18 19 19 13 13 13 13 14 14 14 9 5 1 1 0 1 3 3 2 5 10 3 5 4 4 12 10 11 11 11 12 15 5 5 2 4 3 4 6 8 6 7 4 8 10 11 11 10
17 16 17 17 17 17 17 18 18 17 17 17 18 18 18 17 17 17 17 17 17 17 16 17 18 17 14 13 12 14 6 5 7 14 14 20 20 19 19 19 18 18 12 12 11 11 10 11 12 12 7 5 3 5 5 3 3 4 4 7 7 4 8 11 7 10 13 11 12 14 11 13 10 11 9 6 6 5 8 6 8 8 5 9 11 10 10 9
16 16 17 16 17 17 18 18 18 18 18 18 19 19 18 18 18 17 18 18 17 17 16 17 18 19 18 16 15 6 3 6 7 11 13 20 21 20 20 18 17 14 11 10 10 9 8 8 8 10 8 5 4 3 4 1 1 1 6 6 5 6 7 7 4 12 10 13 12 12 11 10 15 12 8 8 9 5 3 2 8 11 11 9 10 10 9 8
17 17 18 17 17 18 19 18 19 19 19 19 19 19 18 18 18 18 18 18 17 16 16 17 17 19 21 21 18 7 2 3 7 11 15 21 21 20 20 19 15 10 11 10 7 6 6 6 4 5 3 4 4 4 0 4 5 6 6 9 10 11 11 13 15 9 10 9 11 13 12 9 12 10 8 9 7 3 1 9 9 12 16 10 9 8 7 8
17 17 17 17 18 19 19 20 20 20 20 20 20 19 19 19 18 18 17 16 16 16 16 17 17 17 19 23 15 1 3 6 7 10 18 20 21 20 19 19 14 13 11 9 10 10 10 7 6 5 5 4 5 3 6 7 8 5 6 8 9 9 12 10 13 11 10 9 9 10 11 12 9 13 9 10 8 9 12 10 8 9 11 5 6 6 7 7
17 17 17 17 18 19 19 19 19 19 19 20 20 19 19 18 18 17 16 15 14 15 16 17 17 17 17 19 4 10 11 5 7 11 19 20 20 20 18 14 14 11 9 8 9 9 11 9 9 9 6 5 2 6 7 9 9 8 8 8 12 12 14 11 13 10 9 9 10 9 11 13 11 13 7 12 8 10 13 11 10 7 7 12 2 5 4 6
17 17 17 18 18 19 19 20 20 19 19 19 19 19 18 18 16 14 14 13 13 14 17 17 17 19 17 7 3 7 9 7 12 11 17 19 17 18 17 8 11 10 9 10 9 8 10 9 10 10 3 8 8 8 8 7 8 9 8 6 9 9 10 12 11 12 11 10 9 8 10 11 11 11 12 15 11 13 14 14 9 10 7 6 10 0 4 5
16 17 18 18 19 20 21 21 21 20 20 20 19 19 18 16 13 12 13 12 12 14 15 16 19 20 20 3 3 6 8 6 11 12 15 15 15 14 11 10 11 10 8 8 6 7 7 7 8 8 5 8 6 8 5 6 4 4 9 12 12 12 13 13 14 13 11 7 6 11 11 11 10 13 16 15 12 10 11 14 12 10 9 4 6 10 7 0
17 18 19 19 20 21 21 21 21 20 20 20 19 19 17 13 12 12 11 11 12 12 13 15 17 21 11 5 5 9 4 8 8 10 13 12 14 12 12 11 10 10 9 8 5 8 8 7 8 7 6 8 7 8 8 6 7 9 12 11 13 14 14 11 12 13 12 11 9 11 13 13 9 6 12 4 8 4 6 10 12 13 11 7 4 5 7 6
17 18 19 20 20 21 22 21 21 20 20 19 19 17 14 11 11 10 9 10 11 12 11 14 16 14 6 7 10 10 4 8 7 8 12 12 13 12 12 11 9 9 10 6 7 8 7 7 7 5 4 5 9 7 7 4 13 9 10 10 11 11 11 12 13 13 8 8 7 10 12 9 9 9 17 7 12 18 14 11 6 9 15 13 8 4 5 6
18 18 19 20 21 21 21 21 20 20 20 19 17 15 11 10 11 9 9 10 10 11 12 11 14 5 3 8 9 3 7 6 7 8 9 9 10 11 9 9 8 8 8 8 8 7 5 6 6 6 4 9 5 11 4 16 12 10 10 12 12 11 11 11 12 11 8 10 9 10 12 9 6 11 13 12 17 16 17 14 14 12 8 8 4 3 3 3
18 18 19 20 21 21 21 20 20 20 20 19 17 13 9 10 10 10 10 10 11 12 11 10 8 2 4 5 5 4 3 6 7 9 7 7 7 7 5 7 6 4 4 5 6 5 5 4 4 6 4 4 8 4 10 12 12 10 9 9 10 8 8 10 9 10 10 9 10 6 6 2 6 14 17 17 12 11 18 16 11 9 8 6 6 3 3 2
19 18 20 20 21 20 20 20 20 21 20 19 16 12 8 9 10 10 11 11 11 9 9 9 4 3 3 4 1 3 3 7 6 10 11 10 10 8 8 8 5 0 2 2 2 1 2 3 3 4 4 5 4 5 11 9 8 6 9 5 5 6 7 7 4 1 5 3 4 4 8 4 6 10 9 6 14 13 12 14 11 10 10 9 7 8 5 3
18 19 20 20 20 20 20 20 20 21 20 19 16 12 8 8 9 9 9 10 9 8 9 8 3 4 2 1 2 3 8 5 7 10 9 12 12 10 10 10 5 3 2 2 1 2 1 3 4 4 3 2 5 7 7 8 7 5 3 4 3 3 5 6 7 2 2 3 3 6 8 6 5 11 7 9 5 13 14 10 10 12 8 6 6 7 9 4
18 19 20 20 19 19 19 20 20 20 20 18 15 10 8 8 7 9 7 6 9 9 4 3 2 2 2 4 3 7 3 11 11 10 8 7 9 7 8 8 8 1 2 1 1 3 2 2 3 2 4 4 3 5 7 6 5 3 5 8 8 8 8 7 3 10 3 3 5 5 7 9 8 4 8 12 10 5 4 7 12 13 14 12 9 7 7 10
19 19 19 18 18 18 18 19 20 20 20 18 15 8 9 8 9 10 10 4 4 1 3 3 7 2 2 3 4 6 9 9 9 6 9 10 7 5 7 8 3 7 1 4 3 3 4 1 2 2 2 3 10 8 8 5 6 7 7 7 8 10 10 7 13 14 4 6 7 6 7 7 10 13 9 11 13 9 2 4 3 2 1 4 3 5 7 8
19 19 19 18 17 18 18 18 19 20 19 18 12 7 7 10 13 12 7 7 2 0 3 3 2 0 4 5 8 11 9 9 8 9 8 11 3 5 4 4 6 9 9 6 1 5 1 1 4 6 6 8 8 8 6 7 9 9 9 8 9 10 10 11 7 9 15 13 11 8 8 8 6 10 14 13 9 7 8 4 4 4 3 4 6 5 5 6
18 19 17 17 17 18 18 18 18 19 19 16 11 9 9 8 5 1 10 7 1 2 2 7 8 4 1 10 7 8 8 12 11 6 12 13 8 6 6 5 8 7 5 4 1 1 2 2 2 5 10 9 10 10 8 10 11 11 11 8 9 7 9 8 9 10 11 10 8 9 7 9 9 9 11 12 9 5 6 5 6 5 6 6 4 5 5 3
19 18 16 16 17 18 18 17 18 19 19 8 4 3 2 1 1 2 6 8 12 9 6 2 3 2 3 5 8 7 9 10 5 9 11 12 10 10 6 8 1 3 5 5 6 3 2 7 10 10 9 12 12 10 11 10 9 10 9 8 9 10 10 10 10 8 10 11 7 5 8 7 7 7 8 9 8 8 7 2 5 2 1 4 3 1 3 4
18 16 16 16 17 17 16 16 17 18 16 5 3 3 3 3 2 2 5 7 5 5 4 3 1 3 4 4 4 9 10 7 4 9 10 11 7 7 6 6 6 3 7 8 6 1 1 6 9 11 10 12 12 9 8 8 7 9 8 8 8 8 9 8 10 11 9 7 5 3 5 7 8 8 7 6 5 7 5 6 6 6 1 9 18 17 15 13
17 16 15 16 17 17 15 13 15 16 13 7 9 6 4 4 1 3 2 3 3 1 0 1 2 5 3 2 1 7 5 4 9 12 8 13 10 7 8 6 7 8 6 8 4 4 4 9 10 12 10 9 8 7 4 4 4 5 5 6 7 6 8 9 3 8 6 6 6 8 8 8 9 7 5 5 3 3 13 15 17 22 20 16 17 17 18 18
16 15 15 16 16 16 14 14 11 13 9 10 9 8 5 3 2 1 1 2 2 2 2 3 3 6 5 2 3 8 6 8 10 10 13 11 12 9 8 7 7 7 7 8 7 7 6 8 12 11 10 9 8 7 10 6 3 3 3 4 5 6 7 5 1 4 9 5 5 4 7 7 7 7 8 3 14 14 15 17 22 20 20 19 17 17 17 18
16 15 16 15 14 14 14 11 12 4 9 11 10 8 2 3 2 2 3 0 3 2 2 1 2 4 5 5 4 6 4 5 7 12 9 9 10 12 3 6 5 6 8 11 9 5 5 7 9 11 10 9 9 7 8 7 6 5 6 4 5 7 7 6 8 10 11 10 10 9 4 7 12 12 14 15 14 21 18 21 22 18 16 14 15 18 17 18
15 15 15 15 14 13 10 9 3 5 4 8 10 5 5 3 3 1 3 0 0 1 1 1 2 2 4 3 3 4 3 1 6 4 6 8 12 6 3 2 3 4 7 9 7 2 4 6 6 11 12 8 7 5 8 7 6 7 1 2 4 5 8 10 11 11 6 6 3 7 4 5 9 13 19 16 17 19 17 20 20 19 18 18 18 16 16 16
15 15 16 15 15 16 7 2 5 2 7 7 5 5 5 2 2 3 2 1 2 4 1 5 2 5 1 7 6 5 3 1 7 4 7 7 6 1 4 4 2 5 7 6 0 2 3 6 6 7 11 9 7 4 4 5 7 7 2 2 6 8 8 9 10 6 4 4 6 8 4 5 5 15 15 14 17 18 18 21 18 17 17 16 16 16 16 17
15 15 15 15 14 17 2 4 4 2 1 3 5 5 5 2 3 2 1 0 2 3 3 3 3 2 3 5 9 6 2 6 11 3 9 7 10 2 3 7 5 1 1 1 0 2 2 6 8 6 6 7 7 10 9 8 7 5 4 8 10 11 11 10 9 6 6 4 8 3 5 8 9 11 12 12 16 18 20 19 18 16 18 16 16 17 16 17
14 14 14 14 13 13 4 0 2 6 3 3 5 5 4 2 0 2 0 1 3 4 3 4 1 4 4 6 6 6 4 7 3 5 7 5 10 2 2 5 5 9 8 3 4 3 1 6 9 8 7 8 8 7 11 5 4 8 11 9 12 11 9 8 6 5 5 4 4 7 5 4 8 8 9 13 15 18 18 17 18 17 17 17 18 17 17 17
13 12 14 12 14 10 6 4 4 5 2 4 4 4 2 2 2 0 1 2 2 2 5 3 2 2 7 6 5 6 2 4 5 6 8 1 12 3 1 4 6 8 6 2 2 5 2 3 4 3 6 8 10 14 13 7 2 7 11 12 11 9 6 6 4 5 4 3 8 6 3 8 7 8 9 10 15 15 13 13 15 15 15 15 16 16 17 16
11 10 13 17 10 2 1 4 6 2 3 4 4 2 3 2 0 1 1 1 0 1 3 3 3 7 7 6 1 7 6 4 4 5 4 4 8 10 2 4 9 5 2 1 3 8 5 4 4 3 4 4 10 14 8 4 8 13 14 11 11 6 4 1 2 1 1 7 9 8 5 4 5 10 10 11 14 13 11 11 11 15 15 14 13 15 15 16
11 9 10 13 4 3 3 2 4 2 1 1 2 3 2 1 1 1 3 1 2 1 2 2 6 7 8 9 6 8 4 6 7 9 8 7 12 13 11 2 8 4 2 7 6 13 7 3 5 2 4 5 5 9 7 7 4 8 6 10 7 7 3 1 2 0 3 5 4 13 17 9 8 5 8 11 10 11 11 12 13 14 15 13 12 14 15 15
10 8 7 5 2 3 5 3 5 2 1 1 3 2 1 1 1 5 1 0 0 3 2 4 3 6 9 6 5 8 6 5 6 7 6 7 6 13 12 9 8 8 9 9 9 11 6 3 4 7 3 12 9 9 7 7 4 11 9 10 10 6 2 4 2 6 7 3 2 2 3 9 11 6 7 9 9 8 9 10 10 10 11 12 12 13 11 11
10 7 7 4 4 1 1 2 2 2 2 3 2 2 1 0 2 2 1 4 1 1 1 2 4 7 6 3 4 9 2 2 6 6 5 5 5 7 10 11 9 4 2 4 6 9 7 3 8 9 2 8 8 11 13 10 14 12 11 9 9 7 7 6 6 1 2 1 2 10 6 7 5 5 7 7 8 6 6 7 8 8 7 10 12 10 10 9
9 6 4 1 1 1 1 2 1 1 3 2 3 1 3 5 1 3 2 1 2 1 4 2 5 3 5 5 4 5 3 2 7 6 7 2 6 5 5 9 9 6 1 5 4 4 6 6 6 11 6 9 6 5 6 5 11 7 5 8 4 4 3 4 4 5 4 0 2 3 0 1 2 1 4 5 7 8 7 7 6 7 8 7 8 8 9 10
7 5 4 3 3 1 2 1 0 2 2 2 0 0 5 1 1 1 0 1 0 1 1 1 2 2 1 1 0 2 1 2 5 5 5 4 4 4 6 8 9 7 4 1 3 1 2 6 5 8 6 6 7 6 5 8 6 4 5 2 3 3 0 2 3 2 2 3 1 6 3 3 2 1 1 2 3 6 8 7 6 7 8 7 7 10 9 10
4 3 2 1 2 2 2 1 0 2 2 1 1 6 3 0 1 1 1 2 0 1 5 1 2 1 2 1 1 3 3 2 5 4 1 4 3 4 3 2 6 9 6 4 4 3 4 3 5 12 7 4 6 7 5 6 6 10 5 6 7 6 3 3 3 5 2 2 4 4 4 2 1 3 1 2 1 4 6 7 6 7 7 7 7 8 10 9
3 1 2 1 2 3 2 1 1 2 2 1 1 2 1 0 2 1 3 3 2 3 2 1 3 2 3 2 0 5 3 2 1 3 3 0 2 2 2 3 7 5 5 2 3 3 2 11 12 5 10 4 7 7 2 8 5 4 3 6 10 1 2 0 1 3 4 3 0 3 5 4 3 1 2 0 1 2 1 3 4 5 5 7 8 6 8 9
4 2 2 2 2 4 2 0 1 2 2 4 6 5 1 1 2 1 2 1 2 1 3 2 0 1 1 1 1 4 5 1 5 4 1 3 1 2 3 3 5 7 6 3 1 2 3 6 4 0 6 8 8 7 2 6 7 5 3 5 5 2 4 6 0 4 4 2 3 0 3 2 5 2 3 4 2 3 3 1 3 5 6 6 5 6 5 5
2 2 1 1 3 4 2 1 2 2 1 4 2 3 0 1 3 1 2 2 1 3 0 0 1 1 1 1 2 1 5 2 4 1 2 1 2 1 3 2 2 7 8 6 1 3 3 1 6 2 10 10 4 4 4 9 5 3 3 5 3 1 0 2 0 2 0 2 4 1 1 1 1 4 5 6 5 3 2 2 1 3 4 4 4 3 4 3
1 1 0 1 4 3 1 1 3 1 3 3 1 2 0 1 2 0 2 3 1 1 1 1 1 0 0 1 3 2 2 2 1 1 0 1 1 3 4 3 2 5 9 7 1 3 2 0 3 5 11 8 2 3 2 5 9 9 9 8 5 2 2 4 2 2 1 1 1 2 3 1 1 4 5 5 4 2 2 2 2 3 4 3 3 3 2 2
2 0 0 2 4 4 2 1 4 6 4 1 3 3 1 2 1 2 2 3 1 2 2 1 1 0 0 1 1 0 2 3 2 1 1 1 1 0 1 2 4 6 5 4 1 2 1 2 3 9 9 4 1 1 2 2 3 2 3 4 5 6 8 6 1 1 3 1 1 1 6 2 1 1 6 4 3 3 3 2 2 2 3 2 2 4 3 2
1 1 1 3 3 3 2 3 3 2 2 2 1 0 0 2 2 2 1 0 1 1 2 1 3 1 1 1 2 2 2 2 1 1 0 1 0 1 2 4 5 4 3 1 1 2 2 2 3 7 4 8 1 3 1 1 1 1 1 3 4 1 1 2 1 3 2 3 0 2 0 4 1 3 4 4 3 5 3 2 2 1 2 1 2 3 4 2
2 0 1 2 2 3 2 4 3 4 3 0 4 2 2 1 1 1 0 0 0 2 0 0 1 1 2 0 3 2 2 1 2 1 3 1 1 3 3 6 5 5 3 2 2 2 4 1 3 5 6 1 3 3 1 2 1 1 1 3 2 1 1 0 1 1 1 3 2 1 1 4 2 4 4 5 5 5 3 3 1 1 1 1 2 1 3 4
0 1 1 0 1 1 2 2 2 2 2 1 0 2 1 0 0 1 1 1 0 1 1 1 2 1 0 1 1 0 3 1 1 2 1 4 1 2 5 4 5 2 2 1 1 3 1 1 0 4 3 1 1 2 1 2 1 1 1 0 2 1 1 1 1 0 0 3 1 1 3 0 3 4 4 5 8 7 6 5 3 2 1 1 2 2 1 3
2 0 1 1 5 2 3 1 2 4 2 2 1 2 1 0 1 2 1 0 1 0 2 0 1 2 2 3 2 1 2 1 2 2 4 1 1 2 5 4 4 2 3 4 4 2 1 2 2 2 3 5 6 5 5 6 6 5 3 0 1 3 3 1 1 1 2 2 1 2 5 3 2 5 5 9 3 4 4 5 3 3 0 1 0 3 2 2
1 1 1 0 4 4 3 1 3 4 5 2 2 1 0 1 0 2 3 0 2 0 1 2 1 1 2 2 1 3 2 3 1 2 3 2 2 1 4 1 5 2 3 3 3 3 1 1 2 2 2 4 5 5 3 6 8 5 4 6 7 3 1 3 2 3 5 3 5 8 6 9 8 8 9 7 4 6 1 3 2 1 0 1 0 2 3 4
3 1 2 1 1 5 4 3 2 3 3 3 0 3 2 1 1 0 1 0 0 0 0 1 1 1 1 2 1 1 1 4 2 0 4 4 2 2 7 2 3 4 1 1 7 1 0 1 4 5 8 10 9 12 10 5 11 13 12 10 4 4 4 5 5 7 1 5 9 6 10 12 11 5 3 6 7 6 1 1 0 0 0 0 0 2 4 4
1 0 0 1 0 0 0 2 2 3 1 1 2 1 3 3 1 1 0 1 2 1 0 1 1 4 2 3 2 1 1 2 0 3 1 5 4 2 3 3 2 3 2 1 3 2 0 2 3 4 7 7 7 11 12 10 8 10 11 12 12 6 5 6 8 10 7 6 13 4 7 8 11 7 8 7 8 3 0 1 0 1 2 1 1 3 4 4
2 2 1 1 2 0 2 1 1 3 3 1 2 3 4 4 3 3 2 1 1 1 3 2 2 6 5 3 3 1 4 1 3 3 2 1 1 2 2 1 1 4 3 1 1 0 0 4 3 2 8 9 10 12 13 12 10 10 12 13 12 10 10 10 11 9 10 13 12 14 13 17 15 13 10 12 1 1 1 1 2 3 3 1 2 3 4 5
1 0 1 1 1 1 0 0 1 1 1 2 1 4 4 6 5 3 1 3 2 2 2 3 4 2 5 5 4 3 4 6 2 2 1 4 3 4 3 2 1 2 1 1 1 1 2 3 4 2 3 7 9 8 11 10 9 12 13 11 13 12 10 9 8 10 10 12 14 14 16 18 14 7 9 1 2 2 2 4 4 4 2 1 3 4 4 6
1 1 0 1 0 1 0 0 1 1 1 1 2 3 3 6 7 6 3 5 4 4 5 5 2 4 3 4 5 8 4 4 3 3 2 2 3 1 1 1 1 0 1 0 1 2 1 3 3 0 3 5 1 0 2 4 8 13 18 19 15 13 10 8 9 8 8 11 9 9 11 14 8 3 0 3 4 5 6 5 4 3 2 2 4 5 6 6
1 1 3 1 0 3 2 0 1 0 3 4 4 4 3 7 3 5 1 5 6 3 7 7 3 1 2 3 8 5 1 2 2 3 2 3 2 4 3 3 2 2 1 2 1 2 3 1 2 3 4 6 1 2 5 6 9 11 10 10 13 10 9 5 6 8 10 9 9 9 13 7 7 4 4 4 5 6 5 3 1 1 2 4 5 7 8 8
Wind_Direction
29 26 21 15 13 11 10 7 0 1 0 358 357 357 356 354 353 351 346 346 344 340 339 340 341 345 344 335 331 324 327 309 38 35 34 26 0 347 344 341 338 331 331 320 339 348 350 351 350 344 335 307 75 274 21 312 309 308 234 239 247 239 239 243 266 290 10 23 345 347 336 310 302 106 208 70 244 284 302 297 304 244 204 98 127 126 121 131
24 20 15 13 10 9 9 6 1 360 360 358 357 355 354 353 351 348 344 343 343 340 336 335 337 337 342 334 329 323 319 292 39 33 36 4 4 352 348 346 339 335 328 332 342 346 345 344 341 340 336 348 150 125 296 216 151 222 269 227 245 238 250 281 304 38 17 1 331 341 350 347 318 343 3 247 218 211 245 252 248 247 142 114 119 126 134 138
21 18 14 11 9 8 7 3 360 359 357 356 356 353 353 352 349 345 342 340 340 337 337 336 335 337 337 335 336 318 294 277 24 22 14 2 357 353 350 349 346 339 335 325 332 330 343 326 320 334 338 316 13 360 360 292 172 218 261 246 249 274 289 295 32 40 34 343 344 338 344 328 12 357 352 340 281 206 234 230 225 229 197 144 145 139 142 144
20 19 13 9 7 6 6 1 358 357 357 355 354 354 352 352 350 343 342 340 338 337 336 339 336 334 336 336 329 345 275 279 36 352 4 353 352 352 351 350 344 338 323 321 313 321 324 313 317 323 324 310 24 336 309 348 277 130 214 248 288 291 302 301 348 35 19 13 333 329 333 310 4 330 319 327 313 254 245 38 43 2 319 170 142 140 141 144
17 15 11 9 5 5 3 359 356 355 355 355 353 353 354 349 346 342 340 339 339 335 335 337 339 336 334 332 330 289 274 258 32 349 346 349 350 350 349 343 339 332 331 317 332 335 329 321 305 280 264 342 316 329 255 338 2 333 292 305 306 313 306 306 324 356 20 350 333 325 321 337 337 325 326 332 315 285 128 48 18 352 354 101 131 135 145 147
13 10 9 7 6 3 360 357 354 352 352 352 352 351 352 348 343 341 342 341 340 336 334 336 339 338 334 331 325 26 216 51 329 346 335 348 349 348 345 337 353 342 330 357 2 345 357 341 341 13 352 325 321 325 348 345 345 299 311 306 306 311 303 317 321 336 346 335 323 316 315 324 327 309 303 293 282 290 309 358 8 11 357 347 132 142 148 149
12 9 7 6 3 360 357 354 352 350 348 349 351 349 348 346 343 342 344 346 343 335 335 336 338 337 336 327 300 54 62 97 348 324 339 348 346 344 342 341 358 341 337 1 6 359 350 357 12 6 327 302 359 10 334 334 326 298 285 294 293 297 292 301 300 324 342 336 311 314 319 305 316 301 319 305 306 301 315 329 337 345 360 335 1 140 156 160
8 6 4 2 360 357 354 351 351 350 350 348 348 348 346 346 344 345 346 348 346 338 333 339 340 332 335 342 307 47 48 7 333 328 344 343 343 346 343 352 359 344 348 6 1 3 333 23 6 354 339 10 317 333 328 323 310 286 277 288 302 315 317 324 335 332 330 321 311 308 306 302 306 296 306 283 294 306 307 315 323 322 329 321 326 13 157 169
4 3 1 360 358 355 351 348 348 349 349 349 347 347 348 345 348 346 348 352 347 339 337 341 343 335 320 202 355 51 36 329 309 327 348 336 345 345 341 356 3 352 347 2 352 3 353 23 0 16 331 334 328 320 319 317 284 286 320 326 314 306 317 316 312 306 301 300 311 309 293 296 297 319 286 284 283 282 295 296 303 298 295 303 314 316 325 245
2 1 359 358 356 352 348 346 346 346 348 347 348 347 347 349 349 345 350 351 350 346 343 344 345 337 338 39 40 61 5 317 305 341 337 344 339 337 347 351 5 357 353 351 348 22 16 354 0 330 336 284 332 315 316 298 291 316 303 310 311 305 303 301 291 292 293 284 286 275 275 277 281 307 272 327 308 284 243 250 272 286 279 274 246 275 305 307
2 359 357 355 352 350 347 345 344 344 347 346 347 348 350 351 347 349 352 355 355 355 346 345 346 342 29 42 48 59 315 310 342 338 347 350 338 343 350 353 8 6 356 342 350 27 14 351 1 316 243 8 335 302 312 354 352 325 311 305 291 289 282 284 281 273 275 271 255 244 256 248 249 241 255 270 295 300 303 309 281 250 276 284 274 258 239 279
0 358 356 354 351 349 345 343 343 342 344 345 347 352 355 350 347 350 353 344 351 340 342 340 348 334 308 58 54 24 318 317 334 348 350 344 345 340 332 10 353 22 360 353 344 24 8 341 336 343 331 349 314 329 295 352 325 303 297 287 286 289 283 270 264 264 251 263 248 258 265 255 232 239 262 249 245 248 272 276 291 300 303 307 305 278 266 230
359 357 355 353 350 347 345 343 342 342 344 346 347 354 355 347 345 342 340 339 335 329 327 332 335 308 308 52 60 260 322 320 326 342 347 346 329 342 345 13 344 36 27 333 346 351 5 324 358 316 325 322 303 337 328 303 286 280 267 262 281 278 280 272 247 228 239 251 248 217 270 213 236 233 234 243 250 234 240 247 249 270 274 264 288 275 238 256
358 355 355 353 350 348 347 344 343 345 345 345 347 351 349 342 338 335 332 331 330 330 328 319 321 321 327 78 50 261 303 320 305 347 353 330 352 347 6 353 318 266 106 280 304 331 312 347 307 292 271 254 284 329 299 293 273 249 264 258 266 283 273 275 259 283 260 247 283 276 263 276 298 299 305 261 223 237 239 238 240 231 244 267 269 286 281 218
358 355 354 352 350 350 348 345 344 346 345 343 346 346 336 334 327 324 324 323 327 330 320 313 238 294 66 91 227 344 316 289 351 344 346 341 356 341 359 338 332 51 355 285 309 345 148 255 265 266 324 308 282 281 313 318 308 280 310 272 266 281 296 317 317 263 243 325 289 291 275 279 273 267 249 277 264 208 230 244 233 241 240 236 270 277 288 276
358 357 353 352 352 352 349 346 346 345 343 341 340 335 324 311 315 310 294 274 295 307 313 272 345 5 64 51 359 298 328 351 348 326 325 350 350 341 331 323 297 64 208 110 345 191 252 274 293 1 309 285 281 331 323 318 297 325 351 342 335 330 319 342 324 351 333 344 329 294 301 326 289 290 338 334 318 287 260 225 221 228 241 247 246 251 261 281
357 356 355 354 352 353 349 346 346 344 340 338 334 325 319 313 305 312 293 284 261 289 293 16 305 291 45 208 238 356 346 331 315 320 322 357 336 350 323 328 323 299 128 242 176 317 180 245 225 205 175 333 351 339 334 332 332 340 347 331 329 331 332 326 336 317 356 347 312 319 309 297 307 317 320 319 308 328 278 285 312 280 292 294 252 238 242 254
357 357 355 352 353 352 350 348 345 342 336 330 325 300 303 312 312 298 266 231 282 299 310 265 11 188 144 49 2 334 323 313 327 308 318 343 340 309 294 298 305 298 283 183 260 232 114 253 10 32 353 10 351 347 334 320 333 320 325 322 320 325 317 299 309 304 336 330 313 312 299 293 289 309 319 309 297 304 303 313 344 330 297 245 244 245 246 237
358 358 355 353 353 352 348 347 343 339 335 326 295 260 261 293 310 42 27 359 145 39 29 356 4 55 307 328 327 320 334 297 289 315 348 350 331 288 266 232 240 284 359 338 117 216 322 38 11 26 7 358 354 335 310 305 316 306 308 298 298 298 298 293 297 303 302 298 295 299 291 302 316 313 295 295 312 283 272 251 217 240 258 272 279 221 214 280
358 356 356 354 355 350 346 342 337 336 335 330 326 277 220 215 186 45 19 38 63 89 105 28 21 357 320 335 332 328 303 299 330 10 349 347 321 325 333 315 196 184 4 5 322 100 254 20 17 8 355 344 334 325 308 307 301 298 290 287 290 290 285 289 281 307 0 328 272 263 279 268 279 278 285 296 298 307 298 310 331 286 355 323 293 53 343 344
357 358 356 355 356 348 344 337 332 335 347 342 322 23 38 16 280 93 23 73 67 52 78 65 360 356 354 303 336 341 353 327 349 5 3 325 324 308 354 337 16 33 16 338 324 143 58 31 19 1 3 341 331 329 329 316 306 304 305 296 285 281 284 296 327 4 348 350 315 287 278 280 272 272 285 291 288 295 316 350 341 308 25 30 30 26 21 21
358 359 357 357 352 348 340 333 329 339 14 37 56 69 81 50 292 54 274 95 15 53 12 111 48 26 349 353 23 327 270 300 342 4 3 356 355 12 325 5 10 28 2 345 330 28 26 31 357 354 354 339 329 336 324 307 301 299 289 293 290 287 305 309 347 351 334 344 309 317 301 285 278 278 258 241 286 325 32 35 48 49 42 38 35 34 31 29
360 359 356 354 352 343 339 320 327 334 29 43 54 74 65 24 13 74 262 297 94 273 63 3 27 12 11 2 24 329 350 21 341 352 359 1 346 13 315 5 12 15 1 4 8 10 25 10 349 351 340 340 355 4 14 330 265 266 284 283 296 328 337 335 333 255 304 302 283 288 267 270 293 299 293 1 29 35 49 42 48 43 47 43 40 39 37 35
356 352 351 351 350 347 326 323 312 352 57 66 64 57 66 38 326 269 267 360 111 60 38 43 348 20 11 2 343 323 353 356 353 347 357 359 8 309 324 11 352 23 9 357 343 54 39 346 336 345 340 344 0 27 19 1 340 337 329 302 308 336 316 306 311 311 301 280 261 245 264 4 358 14 31 37 49 48 37 43 42 42 45 46 46 44 43 39
356 352 352 352 345 346 338 330 19 16 56 65 61 37 41 11 307 327 309 112 49 71 24 170 258 93 318 213 306 325 22 273 21 331 346 2 345 334 344 341 353 22 354 351 321 50 31 354 352 344 343 344 8 13 29 360 333 328 34 101 320 310 312 306 309 325 318 310 243 192 140 34 353 19 28 19 32 43 40 48 44 35 33 37 41 45 41 41
355 351 352 352 344 337 328 284 43 352 57 53 26 2 30 339 305 307 302 202 78 318 190 16 185 8 281 342 334 332 314 56 356 337 343 2 312 353 286 6 354 358 347 348 32 276 7 330 5 353 336 342 7 358 27 8 328 316 358 293 308 295 291 291 301 327 312 322 318 23 353 87 10 36 32 18 34 33 31 40 41 41 40 34 39 39 38 37
355 350 351 352 344 337 283 51 268 302 195 40 30 335 20 316 297 329 291 137 51 341 2 326 336 58 354 342 333 310 71 338 311 354 353 18 355 131 334 10 339 27 4 178 10 11 345 344 359 354 342 358 359 347 336 350 322 296 309 301 309 306 302 304 308 290 287 291 279 127 114 91 34 34 34 25 37 37 32 27 33 36 40 41 40 39 35 38
354 348 349 349 345 348 35 339 48 53 47 353 342 360 314 325 237 258 39 78 1 328 353 337 73 298 360 324 16 38 167 275 328 1 339 9 7 356 327 21 348 321 322 2 33 285 339 346 4 352 350 0 351 315 304 330 316 275 289 307 299 294 293 298 307 314 287 315 49 101 177 65 34 21 25 29 41 39 35 25 25 30 34 38 39 39 41 38
355 345 341 340 328 319 315 61 62 61 17 355 333 314 342 304 271 313 357 92 250 32 199 37 164 1 345 321 68 9 7 14 27 309 323 52 19 281 330 19 336 318 294 248 325 347 328 54 339 325 1 348 325 318 310 294 289 278 294 291 271 265 248 260 291 296 319 10 27 29 110 95 51 12 23 32 42 38 37 35 29 28 32 35 37 36 39 40
350 347 339 334 322 209 308 87 63 72 4 9 312 279 281 268 286 20 18 45 356 316 16 294 5 317 331 346 9 18 8 19 25 315 342 16 12 4 48 109 358 323 9 26 246 348 316 137 195 37 10 324 318 309 304 282 224 265 292 293 291 189 191 131 275 343 250 55 32 27 53 96 75 23 26 28 29 27 33 39 37 34 33 34 39 40 39 38
345 342 341 336 39 323 276 104 43 37 9 321 323 303 263 261 99 44 76 228 65 294 286 17 357 345 351 16 353 348 357 353 357 0 5 359 17 27 16 106 349 355 36 4 13 352 341 71 25 45 184 316 313 321 345 316 245 313 318 343 330 76 92 58 296 268 60 77 69 63 56 40 100 27 27 32 36 33 30 37 37 40 35 33 36 41 40 35
339 331 333 360 299 307 25 348 339 2 328 321 297 231 241 59 21 67 177 342 56 341 43 309 359 346 337 329 17 340 343 332 1 7 7 13 42 34 29 49 344 352 1 19 333 342 350 23 38 7 157 357 348 341 346 336 346 347 343 359 25 1 352 43 20 38 35 43 340 281 143 62 58 48 21 21 25 26 32 33 37 35 39 40 40 41 41 37
332 314 309 281 296 68 34 312 308 347 326 271 260 260 46 93 48 312 314 359 177 308 346 327 327 328 321 313 16 338 286 24 338 14 346 37 33 71 64 48 10 59 276 330 319 349 319 279 28 351 319 356 6 11 345 356 346 347 3 354 16 11 22 20 13 84 116 61 72 86 45 76 118 74 11 18 11 20 26 35 37 40 41 42 43 39 39 44
326 309 295 125 342 205 292 326 28 302 276 224 278 250 38 60 226 96 206 349 249 277 284 10 307 300 11 51 315 1 356 92 29 351 14 19 37 23 27 42 29 7 8 295 20 329 358 345 356 10 357 334 14 17 333 301 314 350 340 27 29 55 6 347 348 352 347 351 278 346 355 125 163 51 349 8 357 12 20 28 32 35 40 43 40 42 44 43
326 294 274 273 225 143 340 52 180 226 268 252 298 287 81 153 141 335 216 10 36 304 303 234 304 290 183 124 293 62 73 318 28 356 35 23 23 41 5 5 21 21 320 348 356 295 332 242 281 13 306 332 5 341 329 326 299 332 328 6 58 30 87 267 272 291 323 340 23 24 47 355 56 222 277 319 9 16 17 27 23 33 37 35 31 35 33 34
323 222 229 276 353 1 341 105 205 206 259 273 29 40 57 202 149 33 50 264 208 23 314 317 15 26 9 30 197 49 189 74 318 349 100 67 17 45 37 25 18 21 16 36 293 357 331 300 334 325 321 9 3 334 332 346 12 319 4 18 310 253 140 277 280 237 196 168 74 140 126 83 329 246 220 241 83 26 19 22 19 22 30 31 36 31 30 26
255 297 253 48 337 343 326 86 212 242 238 296 55 75 58 4 236 356 24 12 14 328 290 345 345 56 354 311 309 18 326 347 335 358 22 273 107 50 42 90 37 21 35 28 331 112 46 287 295 302 346 8 351 317 292 37 351 334 24 344 306 77 135 138 312 332 4 47 93 174 140 186 196 133 227 74 85 101 62 26 26 27 14 32 30 24 22 24
323 295 295 299 346 322 330 113 269 239 270 64 61 93 234 85 331 25 323 102 264 264 314 24 224 2 213 271 335 357 329 76 336 0 67 26 129 341 85 347 32 22 358 9 200 343 357 306 302 142 4 325 344 348 90 22 16 26 306 342 31 346 4 313 31 8 351 13 328 159 150 168 216 113 175 128 90 91 126 93 43 35 34 31 23 28 15 16
268 286 299 127 318 344 343 186 277 276 318 76 134 119 329 354 354 355 38 351 291 287 213 326 319 350 289 334 320 311 27 45 329 34 36 349 62 56 112 290 349 360 349 350 27 333 296 258 299 8 15 310 327 26 21 327 350 4 320 13 319 159 174 359 332 247 139 297 22 280 359 252 176 142 163 133 112 76 73 112 75 50 49 27 18 19 20 22
267 246 79 348 335 335 12 46 275 22 30 72 35 66 186 147 245 92 13 339 36 330 47 115 307 232 329 292 322 335 356 348 353 289 66 321 126 30 74 51 8 344 339 324 229 27 303 303 279 304 337 328 42 12 55 0 349 350 16 10 8 14 246 162 351 59 100 238 337 317 332 35 100 127 125 118 114 104 59 81 74 63 42 38 22 9 23 29
106 140 147 300 350 324 300 249 40 39 74 97 53 100 171 169 203 135 132 19 334 50 7 4 169 196 74 310 278 53 321 335 317 303 346 123 54 348 85 15 21 345 331 318 101 30 328 331 278 309 327 26 101 20 59 49 330 344 13 50 354 5 2 32 292 29 18 63 286 20 264 275 124 52 116 116 118 120 101 66 92 42 59 31 20 8 349 25
272 70 319 338 355 351 354 58 43 330 82 78 73 112 110 182 28 123 73 350 327 79 16 24 21 59 124 292 333 4 354 295 313 317 74 13 134 341 96 32 40 313 345 330 330 69 95 257 269 295 263 283 92 147 94 136 102 275 35 63 10 33 332 41 10 301 348 267 275 200 351 275 147 105 124 140 146 136 130 96 95 89 85 7 29 18 336 15
9 7 179 309 19 13 35 82 70 44 64 54 276 16 71 39 61 321 223 262 12 303 94 332 155 115 296 115 19 22 350 285 301 321 342 322 350 59 94 58 0 325 294 358 351 58 313 248 296 275 270 12 64 18 334 59 353 336 12 90 70 64 134 197 226 292 264 287 302 301 180 242 228 152 160 155 159 146 135 114 127 98 84 357 17 27 338 346
282 329 334 28 58 115 67 79 96 80 89 330 5 99 237 156 187 352 8 281 231 188 250 150 52 320 129 110 85 243 359 352 89 312 319 27 17 140 97 61 30 320 14 69 293 336 12 159 138 291 317 294 316 342 338 307 49 44 319 252 139 206 119 217 254 31 305 242 184 100 245 256 239 174 191 171 168 154 146 147 131 121 51 60 356 349 320 331
310 241 262 330 5 10 99 210 107 117 106 86 78 73 129 82 337 21 326 201 280 77 318 140 47 133 97 70 46 46 24 138 276 33 359 282 267 117 95 58 32 355 14 58 12 300 251 287 3 29 22 4 336 334 324 323 331 312 256 263 339 9 306 23 341 280 248 264 139 220 252 277 141 207 192 207 267 46 119 127 128 133 143 94 311 337 304 293
334 18 245 41 5 46 85 136 53 118 127 142 113 187 196 136 149 80 10 341 6 347 22 342 76 355 113 82 56 5 307 335 177 271 350 317 334 86 199 104 97 5 29 19 3 338 268 310 242 222 204 231 254 285 325 336 320 300 291 293 282 258 251 165 203 257 225 273 269 238 239 280 277 278 285 283 339 336 14 83 90 74 54 60 38 307 309 288
301 7 359 346 44 50 73 33 106 133 128 186 148 136 163 196 114 114 314 342 243 98 322 261 208 144 185 177 177 166 281 318 309 68 237 252 259 287 328 46 117 111 226 323 359 297 296 281 237 233 240 247 269 277 287 310 288 283 288 284 260 262 234 228 208 229 12 11 282 239 233 251 263 264 286 315 320 313 26 99 93 159 193 206 263 282 296 309
344 35 289 111 169 5 153 34 35 76 133 167 105 142 167 163 175 186 101 230 59 325 82 279 249 245 191 181 147 223 146 216 134 230 267 230 241 320 306 117 130 177 246 113 4 66 123 260 249 237 250 257 260 276 283 279 257 269 274 276 278 258 236 233 239 235 242 225 241 269 322 301 277 276 288 286 294 288 121 325 243 252 232 223 322 313 305 301
111 58 61 322 7 26 7 95 91 100 86 65 123 166 168 182 202 186 162 135 177 228 181 257 219 214 227 213 164 226 149 321 286 241 217 268 284 318 267 118 126 161 166 139 38 355 17 232 258 307 290 274 263 259 266 266 269 264 257 261 260 258 245 238 247 243 227 242 250 266 271 267 268 274 278 281 236 184 275 243 257 245 246 253 260 288 295 291
98 129 64 299 75 91 212 261 128 181 144 198 182 208 182 186 186 132 91 142 161 234 171 239 245 216 203 211 195 221 198 201 252 298 206 182 280 220 252 235 112 223 256 173 125 299 103 289 44 319 295 283 273 244 243 246 261 273 267 257 260 257 257 240 239 246 246 259 257 263 266 270 267 262 264 179 200 209 214 246 236 243 246 261 278 279 286 292
144 142 101 142 153 124 94 231 207 247 189 170 213 178 189 192 208 169 176 177 176 170 174 205 194 221 223 204 213 232 253 275 285 264 270 240 262 130 109 318 77 340 208 272 105 261 132 275 358 38 321 291 264 16 298 309 297 280 278 273 258 252 255 244 225 220 211 234 243 249 257 255 279 227 197 216 218 222 232 222 235 251 253 279 279 276 276 280
91 151 159 106 360 148 178 133 292 360 268 206 184 183 189 206 180 144 188 185 206 168 179 190 228 179 203 212 233 239 345 8 346 336 331 298 270 285 247 267 277 257 268 216 185 199 182 287 341 332 318 261 271 21 315 314 299 289 261 242 231 218 213 230 220 199 207 211 237 232 243 249 248 190 203 226 238 253 246 226 216 257 256 257 268 275 274 270